Location: Ferchesar
(52.6477°N, 12.4298°E)
Time: 04:32:58
(UTC+01:00)

Vanguard 1 - Pass Details

Date: 07 December 2021
Orbit: 652 x 3830 km, 34.2° (Epoch: 21 January)

Event Time Altitude Azimuth Distance (km) Brightness Sun altitude
Rises 19:57:53 0° 170° (S) 6,509 14.1 -35.3°
Enters shadow 20:03:03 - 156° (SSE) 6,219 13.8 -36.1°
Reaches altitude 10° 20:05:57 10° 147° (SSE) 6,154 - -36.5°
Maximum altitude 20:13:35 13° 125° (SE) 6,298 - -37.6°
Drops below altitude 10° 20:21:54 10° 103° (ESE) 6,878 - -38.9°
Sets 20:32:07 0° 82° (E) 7,950 - -40.4°
